Regional Weather Roundup
Issued by NWS Little Rock, AR

Home | Current Version | Previous Version | Graphics & Text | Print | Product List | Glossary On
Versions: 1 2 3 4 5 6 7 8 9 10 11 12 13 14 15 16 17 18 19 20 21 22 23 24 25 26 27 28 29 30 31 32 33 34 35 36 37 38 39 40 41 42 43 44 45 46 47 48 49 50
000
ASUS44 KLZK 311905
RWRLZK

WEATHER ROUNDUP FOR ARKANSAS
NATIONAL WEATHER SERVICE LITTLE ROCK AR
200 PM CDT FRI JUL 31 2015

NOTE: "FAIR" INDICATES FEW OR NO CLOUDS BELOW 12,000 FEET WITH NO
SIGNIFICANT WEATHER AND/OR OBSTRUCTIONS TO VISIBILITY.

ARZ001-003-010-029-312000-
NORTHWEST ARKANSAS

CITY           SKY/WX    TMP DP  RH WIND       PRES   REMARKS
FAYETTEVILLE   MOSUNNY   86  61  42 VRB3      30.16F HX  86
FORT SMITH     MOSUNNY   88  61  40 E5        30.11F HX  88
HARRISON       SUNNY     89  56  32 SE3       30.16F HX  87
BENTONVILLE    MOSUNNY   86  57  37 S7        30.18F HX  85
ROGERS         MOSUNNY   88  56  33 VRB5      30.17F HX  86
SILOAM SPGS    MOSUNNY   84  61  45 SW6       30.16F
HIGHFILL       MOSUNNY   86  63  45 VRB6      30.16F HX  87
SPRINGDALE     MOSUNNY   84  63  48 CALM      30.18F HX  85
$$

ARZ004-005-016-312000-
NORTH CENTRAL ARKANSAS

CITY           SKY/WX    TMP DP  RH WIND       PRES   REMARKS
BATESVILLE     SUNNY     90  63  40 N3        30.10F HX  90
FLIPPIN        SUNNY     88  63  42 CALM      30.12F HX  88
MTN HOME       SUNNY     86  65  49 CALM      30.13F HX  88
$$

ARZ040-041-312000-
WEST CENTRAL ARKANSAS

CITY           SKY/WX    TMP DP  RH WIND       PRES   REMARKS
MENA           SUNNY     90  61  37 NE6       30.14F HX  89
MOUNT IDA      SUNNY     92  60  34 VRB3      30.10F HX  91
$$

ARZ009-017-025-026-028-312000-
NORTHEAST ARKANSAS

CITY           SKY/WX    TMP DP  RH WIND       PRES   REMARKS
JONESBORO      SUNNY     88  68  51 NE8       30.08F HX  91
NEWPORT        SUNNY     88  66  47 NE7       30.10F HX  90
WALNUT RIDGE   SUNNY     90  61  37 NE7       30.09F HX  89
BLYTHEVILLE    SUNNY     89  71  55 N9        30.07F HX  95
$$

ARZ022-023-033-042-044-312000-
CENTRAL ARKANSAS

CITY           SKY/WX    TMP DP  RH WIND       PRES   REMARKS
LITTLE ROCK    MOSUNNY   93  62  35 E10       30.09F HX  93
N LITTLE ROCK  MOSUNNY   94  62  34 E10       30.09F HX  95
JACKSONVILLE   SUNNY     92  61  35 E12       30.09F HX  92
SEARCY         SUNNY     92  66  42 E9        30.10F HX  94
HOT SPRINGS    SUNNY     94  57  28 E8G17     30.10F HX  92
RUSSELLVILLE   SUNNY     91  57  31 N3        30.10F HX  89
CLINTON        FAIR      90  64  43 N3        30.12F HX  91
$$

ARZ036-312000-
EAST ARKANSAS

CITY           SKY/WX    TMP DP  RH WIND       PRES   REMARKS
WEST MEMPHIS   SUNNY     90  67  46 NE9       30.06F HX  93
$$

ARZ050-053-066-070-073-312000-
SOUTHWEST ARKANSAS

CITY           SKY/WX    TMP DP  RH WIND       PRES   REMARKS
ARKADELPHIA    FAIR      95  61  32 VRB3      30.09F HX  95
CAMDEN         SUNNY     93  57  29 NE5       30.07F HX  92
TEXARKANA      SUNNY     90  60  36 VRB7      30.09F HX  89
EL DORADO      LGT RAIN  93  61  34 E7G17     30.08F HX  93
DE QUEEN       SUNNY     90  64  42 VRB3      30.09F HX  91
$$

ARZ056-057-069-312000-
SOUTHEAST ARKANSAS

CITY           SKY/WX    TMP DP  RH WIND       PRES   REMARKS
PINE BLUFF     SUNNY     90  64  42 CALM      30.09F HX  91
STUTTGART      SUNNY     90  64  43 MISG      30.09S HX  91
MONTICELLO     SUNNY     92  65  40 NE9       30.07F HX  94

$$




USA.gov is the U.S. government's official web portal to all federal, state and local government web resources and services.